Regional Weather Roundup
Issued by NWS Sterling, VA

Home | Current Version | Previous Version | Text Only | Print | Product List | Glossary On
Versions: 1 2 3 4 5 6 7 8 9 10 11 12 13 14 15 16 17 18 19 20 21 22 23 24 25 26 27 28 29 30 31 32 33 34 35 36 37 38 39 40 41 42 43 44 45 46 47 48 49 50
000
ASUS41 KLWX 020210
RWRLWX

REGIONAL WEATHER ROUNDUP
NATIONAL WEATHER SERVICE BALTIMORE MD/WASHINGTON DC
1000 PM EDT TUE SEP 01 2015

Note: "FAIR" indicates few or no clouds below 12,000 feet
with no significant weather and/or obstructions to visibility.
 TC=TEMPERATURE CELSIUS

 * =Non NWS site. Station does not report precipitation (e.g. rain,
    snow, etc.), thunder, or fog.

DCZ001-MDZ009-015-VAZ040>042-051-053>054-020300-
WASHINGTON METRO

CITY           SKY/WX    TMP DP  RH WIND       PRES   REMARKS
WASHINGTON NAT MOCLDY    80  74  81 S5        30.05R
DULLES         PTCLDY    76  67  73 CALM      30.05R
ANDREWS AFB    CLEAR     76  70  80 CALM      30.04S
FT BELVOIR     CLEAR     74  71  91 SE1       30.04R
QUANTICO       CLEAR     78  73  84 NW7       30.05R
COLLEGE PARK*  CLEAR     77  70  78 CALM      30.04S
LEESBURG*      CLEAR     79  73  83 CALM      30.07R
MANASSAS*      CLEAR     73  73 100 CALM      30.05R
GAITHERSBURG*  CLEAR     79  64  61 CALM      30.10S

$$

MDZ006>007-011-014-020300-
BALTIMORE METRO

CITY           SKY/WX    TMP DP  RH WIND       PRES   REMARKS
BWI AIRPORT    PTCLDY    76  70  82 CALM      30.04R
MD SCIENCE CTR   N/A     85  67  54 MISG      30.05R
MARTIN STATE   MOCLDY    77  75  94 CALM      30.06R
ANNAPOLIS      PTCLDY    78  75  90 CALM      30.04R
FORT MEADE*    CLEAR     72  70  94 CALM      30.07S

$$

MDZ012-015-019>023-020300-
MARYLAND EASTERN SHORE

CITY           SKY/WX    TMP DP  RH WIND       PRES   REMARKS
OCEAN CITY     PTCLDY    74  70  87 CALM      30.05R
SALISBURY      CLEAR     74  73  97 CALM      30.05R
BAY BRIDGE AP*   N/A     79  68  69 CALM      30.04S
CAMBRIDGE*     PTCLDY    77  70  78 CALM      30.04S

$$

MDZ017>025-020300-
SOUTHERN MARYLAND

CITY           SKY/WX    TMP DP  RH WIND       PRES   REMARKS
PATUXENT RIVER PTCLDY    77  69  76 SW3       30.04R
ST INIGOES     CLEAR     74  71  91 CALM      30.04R
LEONARDTOWN*   NOT AVBL

$$

MDZ003>005-020300-
NORTH CENTRAL MARYLAND

CITY           SKY/WX    TMP DP  RH WIND       PRES   REMARKS
FREDERICK*     CLEAR     72  68  88 CALM      30.09R
HAGERSTOWN APT MOCLDY    81  62  52 E6        30.07R
WESTMINSTER*   CLEAR     75  64  69 CALM      30.08S

$$

MDZ501>502-020300-
WESTERN MARYLAND

CITY           SKY/WX    TMP DP  RH WIND       PRES   REMARKS
OAKLAND*       CLEAR     70  61  73 CALM      30.22S
CUMBERLAND*    CLEAR     79  66  65 CALM      30.12S

$$

VAZ025>031-020300-
SHENANDOAH VALLEY

CITY           SKY/WX    TMP DP  RH WIND       PRES   REMARKS
WINCHESTER*    PTCLDY    79  68  69 S5        30.07R
FRONT ROYAL*   FAIR      77  68  73 S3        30.07R
LURAY*         FAIR      73  66  78 CALM      30.10R
NEW MARKET*    MOCLDY    73  68  83 CALM      30.09R
STAUNTON*      CLOUDY    78  67  67 CALM      30.13S
WAYNESBORO*    MOCLDY    76  69  79 S3        30.14R

$$

WVZ021-048>050-054>055-020300-
EASTERN WEST VIRGINIA PANHANDLE

CITY           SKY/WX    TMP DP  RH WIND       PRES   REMARKS
MARTINSBURG    CLEAR     76  66  71 CALM      30.07R
PETERSBURG*    PTCLDY    73  68  84 CALM      30.12S

$$

VAZ036>039-050-020300-
CENTRAL FOOTHILLS

CITY           SKY/WX    TMP DP  RH WIND       PRES   REMARKS
CHARLOTTESVILL PTCLDY    78  71  79 CALM      30.08R
CULPEPER*      CLEAR     72  69  92 CALM      30.07R
ORANGE*        PTCLDY    73  72  94 SW3       30.08R
GORDONSVILLE*  FAIR      74  69  86 CALM      30.07R
WARRENTON*     FAIR      72  70  94 CALM      30.05S

$$

VAZ055>057-020300-
NORTH AND CENTRAL PIEDMONT

CITY           SKY/WX    TMP DP  RH WIND       PRES   REMARKS
FREDERICKSBRG* CLEAR     77  70  80 CALM      30.04S HAZE
STAFFORD*      CLEAR     72  70  93 CALM      30.09R FOG

$$

NCZ024-NYZ072-PAZ021-071-VAZ022-071-020300-
OTHER REGIONAL OBSERVATIONS

CITY           SKY/WX    TMP DP  RH WIND       PRES   REMARKS
NEW YORK CITY  CLEAR     78  63  59 S3        30.07S
PHILADELPHIA   CLEAR     79  70  74 E5        30.06R
PITTSBURGH     CLOUDY    78  67  68 W5        30.11R
ROANOKE        MOCLDY    79  67  66 NE5       30.14R
RICHMOND       PTCLDY    80  69  69 SE3       30.06R
RALEIGH        PTCLDY    76  69  79 CALM      30.08S

$$

ANZ530>537-020300-
MARINE OBSERVATIONS

STATION/POSITION TIME  TEMP    WIND        PRES
                       AIR SEA DIR/SP/G
                 (UTC) (F)     (DEG/KT/KT) (MB)
THOMAS PT LIGHT  NOT AVBL
BALT KEY BRIDGE  0100   85     100/  3/  4 1017.0R
COVE POINT       0100   81     200/  5/  6 1017.8R
LEWISETTA        0100   81 81  210/  6/  7 1016.8R
SOLOMONS ISLAND  0100      81                N/A
PINEY POINT      0117          210/  5/  6   N/A

$$



USA.gov is the U.S. government's official web portal to all federal, state and local government web resources and services.